Weather History for Al Udeid, Qatar

Change the Weather History Date:

Thursday, April 11, 2013

  Actual Average Record
Temperature  
Mean Temperature 80 °F -  
Max Temperature 93 °F - - ()
Min Temperature 66 °F - - ()
Cooling Degree Days 14    
Growing Degree Days 30 (Base 50)    
Moisture  
Dew Point 57 °F    
Average Humidity 52    
Maximum Humidity 82    
Minimum Humidity 17    
Precipitation  
Precipitation 0.00 in - - ()
Sea Level Pressure  
Sea Level Pressure 29.82 in    
Wind  
Wind Speed 6 mph ()    
Max Wind Speed 13 mph    
Max Gust Speed 21 mph    
Visibility 6.2 miles    
Events      
T = Trace of Precipitation, MM = Missing Value Source: Averaged Metar Reports

Daily Weather History Graph

Daily Weather History Graph

Search for Another Location

Airport:

Trip Planner

Search our weather history database for the weather conditions in past years. The results will help you decide how hot, cold, wet, or windy it might be!

Date:

Astronomy

Apr. 11, 2013 Rise Set
Actual Time 5:16 AM AST 5:55 PM AST
Civil Twilight 4:53 AM AST 6:18 PM AST
Nautical Twilight 4:25 AM AST 6:46 PM AST
Astronomical Twilight 3:58 AM AST 7:14 PM AST
Moon 5:40 AM AST (4/11) 6:57 PM AST (4/11)
Length of Visible Light 13h 25m
Length of Day
12h 39m
New Moon, 1% of the Moon is Illuminated
Apr 11
New Moon
Apr 18
First Quarter
Apr 25
Full
May 2
Last Quarter
May 10
New

Hourly Weather History & Observations

Time (AST) Temp. Heat Index Dew Point Humidity Pressure Visibility Wind Dir Wind Speed Gust Speed Precip Events Conditions
12:55 AM 72.9 °F - 66.7 °F 81% 29.78 in 6.2 mi East 8.1 mph - N/A   Clear
1:55 AM 72.5 °F - 64.6 °F 76% 29.77 in 6.2 mi ESE 6.9 mph - N/A   Clear
2:55 AM 70.3 °F - 63.5 °F 79% 29.78 in 6.2 mi SSE 3.5 mph - N/A   Clear
3:55 AM 68.4 °F - 62.2 °F 81% 29.78 in 6.2 mi ESE 4.6 mph - N/A   Clear
4:55 AM 66.6 °F - 61.0 °F 82% 29.80 in 6.2 mi South 3.5 mph - N/A   Clear
5:55 AM 69.1 °F - 61.9 °F 78% 29.82 in 6.2 mi Calm Calm - N/A   Clear
6:55 AM 72.9 °F - 65.5 °F 78% 29.84 in 6.2 mi SE 3.5 mph - N/A   Clear
7:55 AM 78.4 °F - 65.3 °F 64% 29.86 in 6.2 mi SE 8.1 mph - N/A   Clear
8:55 AM 83.3 °F 83.7 °F 61.0 °F 47% 29.88 in 6.2 mi ENE 3.5 mph - N/A   Scattered Clouds
9:55 AM 87.8 °F - 52.5 °F 30% 29.88 in 6.2 mi ENE 4.6 mph - N/A   Mostly Cloudy
10:55 AM 91.0 °F - 46.2 °F 21% 29.86 in 6.2 mi Variable 4.6 mph - N/A   Mostly Cloudy
11:55 AM 92.8 °F - 42.6 °F 18% 29.85 in 6.2 mi East 8.1 mph - N/A   Overcast
12:55 PM 93.9 °F - 42.4 °F 17% 29.84 in 6.2 mi NE 11.5 mph - N/A   Mostly Cloudy
1:55 PM 92.3 °F - 47.3 °F 21% 29.81 in 6.2 mi ENE 12.7 mph - N/A   Partly Cloudy
2:55 PM 91.0 °F - 48.6 °F 23% 29.81 in 6.2 mi ENE 12.7 mph - N/A   Partly Cloudy
3:55 PM 89.2 °F - 49.3 °F 25% 29.80 in 6.2 mi ENE 12.7 mph 20.7 mph N/A   Clear
4:55 PM 85.3 °F 83.8 °F 54.7 °F 35% 29.80 in 6.2 mi East 12.7 mph - N/A   Clear
5:55 PM 80.8 °F 81.2 °F 59.0 °F 47% 29.80 in 6.2 mi ENE 9.2 mph 19.6 mph N/A   Clear
6:55 PM 78.4 °F - 62.4 °F 58% 29.81 in 6.2 mi ENE 9.2 mph - N/A   Clear
7:55 PM 77.2 °F - 62.1 °F 59% 29.84 in 6.2 mi ENE 3.5 mph - N/A   Clear
8:55 PM 76.6 °F - 62.1 °F 61% 29.85 in 6.2 mi NNE 5.8 mph - N/A   Clear
9:55 PM 76.1 °F - 60.8 °F 59% 29.84 in 6.2 mi North 5.8 mph - N/A   Clear
10:55 PM 75.6 °F - 57.6 °F 53% 29.83 in 6.2 mi North 5.8 mph - N/A   Clear
11:55 PM 74.1 °F - 57.4 °F 56% 29.83 in 6.2 mi NNE 6.9 mph - N/A   Clear